User: anonymous   Login
Location: Lawrence Hall of Science
(37.8785°N, 122.2415°W)
Time: 12:44:35
(UTC-07:00)
Language:

Cosmos 2098 Rocket - Orbit

View from above orbital plane
View from above orbital plane
View from above satellite
View from above satellite

Ground track
Ground track

The orbit data is extracted from the following two-line orbital elements,

1 20775U 90078B   18145.89943731 +.00003402 +00000-0 +16744-3 0  9992
2 20775 082.9259 126.9474 0582797 005.4644 355.2535 14.32137364397799
Epoch (UTC): 25 May 2018 21:35:11
Eccentricity: 0.0582797
inclination: 82.9259°
perigee height: 367 km
apogee height: 1202 km
right ascension of ascending node: 126.9474°
argument of perigee: 5.4644°
revolutions per day: 14.32137364
mean anomaly at epoch: 355.2535°
orbit number at epoch: 39779

The dashed part of the orbit path shows where the satellite is in the earth's shadow,  

DLR